Showing default

GNOMES-4, 58462

Orbit data source: Space-Track

GNOMES-4, 58462 is a payload satellite owned by PlanetiQ (US) in SSO that was launched on Fri, 01 Dec 2023 UTC via an FALCON 9 launch vehicle from the Air Force Western Test Range (AFWTR). Payload-class satellites include a variety of spacecraft equipped with specific instruments for various scientific and technological missions. These include communications satellites like Starlink; space stations such as the ISS; scientific satellites like the Hubble; Earth observation satellites from companies like Planet Labs, Umbra, and HawkEye 360; GPS; miniature CubeSats for education and research; and military/defense satellites.

Loading next visibility...
Identifier
58462, 2023-185A
Orbit
SSO
Country
Flag of USUS
Related business
Manufacturer
Blue Canyon
Mission
Operational Commercial Communications
Bus & Motor
XSAT, Unknown motor
Mass
~30 kg wet, ~30 kg dry
Launch date (UTC)
2023-12-01 (3 years ago)
Launch vehicle
FALCON 9
Launch site
Air Force Western Test Range (AFWTR)
Object type
Payload
Rocket body
Debris
Shape & HBR
Box + 2 Pan, 0.3 m
Radar Cross Section
0.162 m², Medium (>0.1 m² and < 1m²)

Expand to show TLE details & history
Last TLE update: 10 hours ago

TLE from 10 hours ago
0 GNOMES-4
1 58462U 23185A   26263.61090594  .00001826  00000-0  14628-3 0  9998
2 58462  97.4728 317.2380 0010807  10.1830 349.9611 15.01293793153605
Epoch: 2026-09-20T14:39Z
TLE epoch observation values (Epoch: 2026-09-20T14:39:42.273Z)
Latitude
-0.00008°
Longitude
97.80926°
Altitude
558.581 km
Speed
7.586 km/s
True Right ascension
21h 08m 57s
True Declination
0° 00' 00"
Sunlit
Object was in full shadow at epoch
Visualization orbit readout
Latitude
Unknown
Longitude
Unknown
Altitude
Unknown
Speed
Unknown
Apparent Right ascension
Unknown
Apparent Declination
Unknown
Sunlit
N/A
Visualization observer readout
Local Sidereal Time
18:03:46
Azimuth
Unknown
Elevation
Unknown
Doppler factor
Unknown
Orbital elements
Apogee altitude
567.397 km
Perigee altitude
552.401 km
Semi-major axis
6,938.036 km
Eccentricity
0.00108
Inclination
97.4728°
RAAN
317.238°
Arg. of periapsis
10.183°
True anomaly
349.93948°
Mean anomaly
349.9611°
Eccentric anomaly
349.95029°
Mean motion
3.75568 °/min
Orbital period
95.85 mins
BSTAR
0.00014628
Loading maneuver chart data...
Computing Atmospheric mass density...
Loading historical data...
Loading historical data...
Loading historical data...
Loading historical data...
Loading historical data...
Loading historical data...
Loading historical data...

Documentation

Showing up to 5 results
|